[[{"header":{"parameterUnit":"m.s-1","parameterCategory":1,"la1":30.2991,"la2":30.254,"lo1":-89.0895,"lo2":-89.0444,"dy":0.0017,"dx":0.0017,"nx":28,"ny":28,"refTime":"2024-09-02T21:00:00:Z","depth":0,"parameterNumber":2,"parameterNumberName":"U-component_of_WINDS"},"data":[0,0,0,0,0,0,0,0,0,0,0,0,0,0,0,0,0,0,0,0,0,0,0,0,0,0,0,0,0,0,0,0,0,0,0,0,0,0,0,0,0,0,0,0,0,0,0,0,0,0,0,0,0,0,0,0,0,0,-4.6911,-4.6913,0,-4.7024,-4.7025,-4.7027,-4.699,-4.6988,-4.6985,-4.6983,-4.7108,-4.7114,-4.7119,0,0,0,0,0,0,0,0,0,0,0,0,0,-4.6675,-4.668,-4.6911,-4.6913,-4.6914,-4.7024,-4.7025,-4.7027,-4.6991,-4.6988,-4.6985,-4.6982,-4.7107,-4.7113,-4.712,0,0,0,0,0,0,0,0,0,0,0,0,0,-4.6782,-4.6681,-4.6911,-4.6909,-4.691,-4.7023,-4.7025,-4.7027,-4.6991,-4.6988,-4.6984,-4.698,-4.7104,-4.7113,-4.7121,-4.7246,0,0,-4.7147,-4.715,0,0,0,0,0,0,0,0,-4.6776,-4.6791,-4.6908,-4.6909,-4.6911,-4.6989,-4.6988,-4.7101,-4.6992,-4.6961,-4.6983,-4.6979,-4.7072,-4.7083,-4.7113,-4.7252,-4.7258,-4.7147,-4.7152,-4.7156,-4.7158,0,0,0,0,0,0,0,-4.6769,-4.6786,-4.6956,-4.691,-4.6911,-4.6906,-4.6917,-4.7009,-4.7036,-4.6963,-4.6961,-4.6974,-4.7072,-4.7105,-4.7115,-4.7259,-4.7147,-4.7155,-4.716,-4.7163,-4.7507,-4.7511,0,0,0,0,0,0,-4.6759,-4.678,-4.6953,-4.696,-4.6832,-4.6913,-4.6925,-4.6968,-4.7035,-4.7041,-4.6977,-4.6972,-4.7092,-4.7106,-4.712,-4.7269,-4.7156,-4.7164,-4.7169,-4.7503,-4.7508,-4.7513,0,0,0,0,0,0,-4.6754,-4.6775,-4.6948,-4.6869,-4.6891,-4.6921,-4.6969,-4.6972,-4.7004,-4.7045,-4.7051,-4.7004,-4.709,-4.7108,-4.7214,-4.7273,-4.7168,-4.7175,-4.7499,-4.7505,-4.7511,-4.757,0,0,0,0,0,0,-4.6747,-4.6773,-4.6818,-4.687,-4.6895,-4.7038,-4.6972,-4.6977,-4.7017,-4.7011,-4.7072,-4.7079,-4.7088,-4.7202,-4.7223,-4.7283,-4.7182,-4.7493,-4.7501,-4.7509,-4.7563,-4.7577,-4.7589,0,0,0,0,0,-4.6739,-4.6833,-4.6821,-4.6842,-4.6952,-4.7041,-4.7056,-4.7061,-4.7022,-4.7069,-4.7096,-4.7077,-4.7264,-4.7213,-4.7236,-4.7299,-4.749,-4.7499,-4.7508,-4.7556,-4.7574,-4.7589,0,0,0,0,0,0,-4.6791,-4.684,-4.6827,-4.694,-4.6986,-4.7034,-4.7094,-4.708,-4.7141,-4.7134,-4.7142,-4.7156,-4.7265,-4.7294,-4.7236,-4.7424,-4.7371,-4.7386,-4.74,-4.7418,-4.7431,-4.742,-4.7189,0,0,0,0,0,-4.6815,-4.688,-4.6921,-4.7017,-4.704,-4.7064,-4.7103,-4.7103,-4.7153,-4.7173,-4.7208,-4.726,-4.733,-4.7376,-4.7444,-4.7568,-4.7581,-4.7624,-4.7637,-4.7648,-4.7659,-4.7726,-4.7745,-4.7543,-4.7543,-4.7543,0,0,-4.6866,-4.6901,-4.6942,-4.7028,-4.7064,-4.7133,-4.708,-4.7157,-4.7209,-4.7186,-4.7286,-4.7315,-4.7373,-4.7489,-4.7542,-4.7516,-4.7718,-4.766,-4.7668,-4.7673,-4.7738,-4.7757,-4.7774,-4.7549,-4.7548,-4.7547,0,0,-4.6994,-4.7027,-4.7109,-4.7146,-4.72,-4.7215,-4.7235,-4.7286,-4.7302,-4.7403,-4.7387,-4.7452,-4.7573,-4.7615,-4.7652,-4.7797,-4.7782,-4.782,-4.7889,-4.7954,-4.797,-4.7984,-4.8034,-4.8052,-4.7832,-4.7832,-4.7832,0,-4.7051,-4.7151,-4.7155,-4.7231,-4.727,-4.725,-4.7334,-4.7372,-4.7446,-4.7475,-4.7445,-4.7596,-4.7635,-4.7758,-4.7794,-4.7826,-4.785,-4.7811,-4.7967,-4.7981,-4.7995,-4.8042,-4.8061,-4.7836,-4.7836,-4.7835,-4.7835,0,-4.7218,-4.7289,-4.735,-4.7418,-4.7464,-4.7545,-4.7563,-4.761,-4.7608,-4.7627,-4.7731,-4.7777,-4.7852,-4.7883,-4.7883,-4.8007,-4.7989,-4.7964,-4.791,-4.8018,-4.8062,-4.8081,-4.7842,-4.784,-4.7839,-4.7838,0,0,-4.7378,-4.7447,-4.7469,-4.7499,-4.7558,-4.7615,-4.7697,-4.7766,-4.7806,-4.7861,-4.7929,-4.8032,-4.8008,-4.8051,-4.8056,-4.8114,-4.8224,-4.8081,-4.8083,-4.8104,-4.8363,-4.8379,-4.84,-4.8215,-4.8219,-4.8222,-4.8357,0,-4.7508,-4.7645,-4.7651,-4.7778,-4.7843,-4.7827,-4.7898,-4.7944,-4.7965,-4.8026,-4.8051,-4.8123,-4.8087,-4.8112,-4.8169,-4.8198,-4.8275,-4.8189,-4.828,-4.8283,-4.8261,-4.8423,-4.8441,-4.8565,-4.8375,-4.8378,-4.838,0,-4.7677,-4.7731,-4.7863,-4.7912,-4.794,-4.8002,-4.8067,-4.8126,-4.8179,-4.819,-4.8238,-4.8235,-4.8321,-4.8267,-4.8386,-4.8327,-4.8366,-4.8387,-4.8392,-4.8397,-4.8335,-4.8431,-4.8606,-4.8623,-4.8408,-4.8406,-4.8404,0,-4.7776,-4.7884,-4.7975,-4.8003,-4.8063,-4.8108,-4.8136,-4.8184,-4.8226,-4.8285,-4.8313,-4.8383,-4.842,-4.8476,-4.8493,-4.8452,-4.8612,-4.8559,-4.8624,-4.8623,-4.8655,-4.8652,-4.8835,-4.8686,-4.8686,-4.8685,-4.8685,0,-4.7918,-4.7999,-4.802,-4.8077,-4.8168,-4.8176,-4.8267,-4.8293,-4.8337,-4.84,-4.8394,-4.8454,-4.8474,-4.8539,-4.8554,-4.865,-4.8668,-4.8681,-4.8683,-4.8679,-4.8677,-4.8702,-4.8692,-4.869,-4.8689,-4.8688,-4.8687,0,-4.8042,-4.806,-4.8159,-4.8208,-4.8222,-4.8287,-4.833,-4.8386,-4.8406,-4.8487,-4.8506,-4.854,-4.8616,-4.8639,-4.8732,-4.8742,-4.8853,-4.885,-4.8834,-4.8833,-4.8895,-4.8888,-4.9098,-4.9125,-4.8961,-4.8962,-4.8964,0,-4.8129,-4.819,-4.8245,-4.8285,-4.8313,-4.8379,-4.842,-4.8434,-4.8478,-4.8543,-4.8591,-4.8666,-4.8725,-4.8848,-4.8883,-4.8954,-4.8951,-4.9019,-4.8961,-4.8955,-4.8948,-4.8943,-4.8948,-4.9029,-4.9031,-4.9032,-4.9033,0,-4.8281,-4.8287,-4.8345,-4.8408,-4.8457,-4.8508,-4.8557,-4.8591,-4.8612,-4.8663,-4.8738,-4.8784,-4.8878,-4.8952,-4.9024,-4.9057,-4.9049,-4.9052,-4.907,-4.9065,-4.9051,-4.9056,-4.886,-4.9046,-4.9045,-4.9044,-4.9043,-4.9043,-4.8387,-4.844,-4.8486,-4.8552,-4.859,-4.8636,-4.8689,-4.8716,-4.8778,-4.8852,-4.8858,-4.894,-4.8993,-4.9089,-4.9126,-4.9192,-4.9172,-4.9199,-4.9206,-4.9211,-4.9214,-4.9044,-4.9206,-4.9206,-4.9205,-4.9205,-4.9205,0,-4.8536,-4.8565,-4.8625,-4.8692,-4.8745,-4.8731,-4.8785,-4.883,-4.8901,-4.895,-4.9008,-4.9095,-4.9168,-4.9208,-4.9281,-4.9326,-4.9325,-4.9345,-4.934,-4.9347,-4.9229,-4.9204,-4.9345,-4.9345,-4.9345,-4.9345,-4.9345,-4.9345,-4.8619,-4.8707,-4.8719,-4.8826,-4.8856,-4.8933,-4.8964,-4.9008,-4.9046,-4.9143,-4.9201,-4.9227,-4.9273,-4.9349,-4.9416,-4.9426,-4.9453,-4.9474,-4.9483,-4.9371,-4.9356,-4.9342,-4.9319,-4.9481,-4.9481,-4.9595,-4.9596,-4.9597]},{"header":{"parameterUnit":"m.s-1","parameterCategory":1,"la1":30.2991,"la2":30.254,"lo1":-89.0895,"lo2":-89.0444,"dy":0.0017,"dx":0.0017,"nx":28,"ny":28,"refTime":"2024-09-02T21:00:00:Z","depth":0,"parameterNumber":3,"parameterNumberName":"V-component_of_WINDS"},"data":[0,0,0,0,0,0,0,0,0,0,0,0,0,0,0,0,0,0,0,0,0,0,0,0,0,0,0,0,0,0,0,0,0,0,0,0,0,0,0,0,0,0,0,0,0,0,0,0,0,0,0,0,0,0,0,0,0,0,4.4803,4.4803,0,4.4832,4.4832,4.4833,4.4847,4.4847,4.4847,4.4847,4.4874,4.4874,4.4875,0,0,0,0,0,0,0,0,0,0,0,0,0,4.4756,4.4756,4.4803,4.4803,4.4804,4.4832,4.4832,4.4833,4.4847,4.4847,4.4847,4.4847,4.4873,4.4874,4.4875,0,0,0,0,0,0,0,0,0,0,0,0,0,4.4779,4.4757,4.4803,4.4814,4.4815,4.4832,4.4832,4.4833,4.4847,4.4847,4.4847,4.4847,4.4873,4.4874,4.4875,4.4882,0,0,4.4878,4.4879,0,0,0,0,0,0,0,0,4.4778,4.4781,4.4812,4.4813,4.4815,4.4836,4.4826,4.4849,4.4847,4.4835,4.4847,4.4847,4.4861,4.4863,4.4868,4.4883,4.4884,4.4879,4.4879,4.488,4.488,0,0,0,0,0,0,0,4.4776,4.478,4.4814,4.4812,4.4814,4.4816,4.482,4.483,4.4847,4.4836,4.4837,4.484,4.4862,4.4867,4.4869,4.4885,4.4879,4.488,4.488,4.4881,4.4905,4.4905,0,0,0,0,0,0,4.4773,4.4779,4.4813,4.4815,4.4796,4.4817,4.4821,4.4829,4.4847,4.485,4.484,4.4841,4.4865,4.4868,4.487,4.4878,4.488,4.4881,4.4881,4.4905,4.4905,4.4905,0,0,0,0,0,0,4.4772,4.4776,4.4812,4.4797,4.4802,4.4818,4.4827,4.4829,4.4835,4.4851,4.4853,4.4843,4.4865,4.4868,4.4879,4.4879,4.4881,4.4882,4.4905,4.4905,4.4905,4.4895,0,0,0,0,0,0,4.4771,4.4776,4.478,4.4797,4.4803,4.4821,4.4827,4.483,4.4837,4.4838,4.4854,4.4857,4.4866,4.4877,4.488,4.4881,4.4883,4.4905,4.4905,4.4905,4.4895,4.4894,4.4894,0,0,0,0,0,4.4769,4.4776,4.478,4.4784,4.4808,4.4822,4.4825,4.4836,4.4837,4.4841,4.485,4.4856,4.4879,4.4878,4.4881,4.4882,4.4905,4.4905,4.4905,4.4895,4.4895,4.4894,0,0,0,0,0,0,4.4757,4.4778,4.4783,4.4796,4.4807,4.4824,4.4828,4.4835,4.4845,4.4845,4.4858,4.4861,4.487,4.4877,4.4876,4.4889,4.4892,4.4893,4.4884,4.4883,4.4883,4.4881,4.4884,0,0,0,0,0,4.4756,4.4767,4.4784,4.4793,4.4798,4.4812,4.4819,4.4826,4.4838,4.4842,4.4853,4.4863,4.4872,4.4878,4.4888,4.4896,4.4899,4.4898,4.4898,4.4897,4.4897,4.4901,4.4901,4.4904,4.4904,4.4904,0,0,4.4754,4.4767,4.4772,4.4791,4.4801,4.481,4.4816,4.4826,4.4833,4.4844,4.4854,4.4862,4.4874,4.4883,4.4887,4.4889,4.4897,4.4897,4.4897,4.4897,4.4901,4.4901,4.49,4.4904,4.4904,4.4904,0,0,4.4755,4.4766,4.4774,4.4783,4.4798,4.4807,4.4808,4.4824,4.483,4.4841,4.4849,4.4856,4.4872,4.488,4.4886,4.4887,4.4893,4.489,4.4887,4.489,4.489,4.4889,4.4889,4.4889,4.489,4.489,4.489,0,4.475,4.4765,4.4777,4.4786,4.4794,4.4804,4.4812,4.482,4.4836,4.484,4.4842,4.4862,4.4871,4.4881,4.4881,4.4886,4.4888,4.4889,4.4889,4.4889,4.4889,4.4889,4.4888,4.489,4.489,4.489,4.489,0,4.4758,4.4768,4.4773,4.4789,4.4796,4.4805,4.4817,4.4823,4.4829,4.4837,4.4846,4.4857,4.4869,4.4872,4.4878,4.4882,4.4883,4.4887,4.489,4.4888,4.4888,4.4888,4.4889,4.4889,4.4889,4.489,0,0,4.4753,4.4774,4.4776,4.4782,4.4798,4.4806,4.4813,4.4825,4.4829,4.484,4.4846,4.4858,4.4862,4.4869,4.4875,4.4878,4.4877,4.4882,4.4882,4.488,4.4882,4.4878,4.4878,4.4881,4.4881,4.4881,4.488,0,4.4755,4.4771,4.4781,4.4792,4.4801,4.481,4.4817,4.4826,4.4834,4.4841,4.4849,4.4857,4.4861,4.4865,4.4869,4.4877,4.4878,4.4877,4.4886,4.4886,4.4882,4.4878,4.4875,4.4874,4.4881,4.4881,4.4881,0,4.476,4.4771,4.4783,4.4796,4.48,4.4806,4.4816,4.4824,4.4834,4.4839,4.4846,4.4853,4.486,4.4862,4.4872,4.4871,4.4875,4.4879,4.4879,4.488,4.4883,4.4879,4.4874,4.4874,4.4881,4.4881,4.4881,0,4.4755,4.4771,4.478,4.4786,4.4802,4.4805,4.4812,4.4822,4.4828,4.4837,4.484,4.485,4.4854,4.4861,4.4869,4.4871,4.4877,4.4881,4.4881,4.488,4.4882,4.4882,4.4877,4.4885,4.4885,4.4885,4.4885,0,4.4756,4.4763,4.4778,4.4783,4.479,4.4801,4.4807,4.4815,4.4824,4.483,4.4838,4.4843,4.4854,4.486,4.4867,4.4873,4.4875,4.4879,4.488,4.4878,4.4877,4.4881,4.4881,4.4885,4.4885,4.4885,4.4885,0,4.4751,4.4761,4.4772,4.4786,4.4789,4.4794,4.4805,4.481,4.4817,4.4825,4.4827,4.4838,4.4846,4.4855,4.4865,4.487,4.4875,4.4878,4.4872,4.4872,4.4872,4.4871,4.4869,4.4869,4.4877,4.4877,4.4877,0,4.4751,4.4756,4.4771,4.4776,4.4782,4.479,4.4796,4.4806,4.4811,4.4822,4.4825,4.4834,4.4841,4.4852,4.4861,4.4868,4.4871,4.487,4.4872,4.4869,4.487,4.487,4.487,4.4869,4.4869,4.4869,4.4869,0,4.475,4.4754,4.4763,4.4772,4.4779,4.4787,4.4795,4.4798,4.481,4.4815,4.4823,4.4829,4.4839,4.4847,4.4855,4.4861,4.4866,4.4868,4.4868,4.4865,4.4861,4.4863,4.4869,4.4868,4.4868,4.4868,4.4868,4.4868,4.4747,4.4752,4.4762,4.477,4.4778,4.4785,4.479,4.4797,4.4804,4.4814,4.4819,4.4827,4.4835,4.4847,4.4853,4.4858,4.486,4.486,4.486,4.486,4.4859,4.4861,4.4859,4.4859,4.486,4.486,4.486,0,4.4746,4.4752,4.476,4.4771,4.4777,4.4782,4.4791,4.4796,4.4802,4.481,4.4817,4.4825,4.4832,4.4841,4.4848,4.4851,4.4853,4.4852,4.4852,4.4853,4.4857,4.4856,4.485,4.485,4.485,4.485,4.485,4.485,4.4746,4.4753,4.4759,4.4769,4.4776,4.4784,4.4788,4.4794,4.48,4.4809,4.4815,4.4821,4.4829,4.4836,4.4843,4.4845,4.4847,4.4845,4.4848,4.4852,4.4853,4.4854,4.4852,4.4846,4.4845,4.4843,4.4843,4.4843]}]]